Preview of NWS' New Version of Forecast
This preview is not operational and should not be used for support decisions.
Latest weather observations around

Everett Snohomish County (KPAE)

Using International System of Units (Switch to English Units)
Date/ Time (PDT) Wind (kph) Vis. (km) Weather Sky Cond. Temp (°C) Rel. Humidity Wind Chill (°C) Heat Index (°C) Pressure Precip. (cm)
Air Dwpt 6 hour Altimeter (hPa) Sea level (hPa) 1 hr 3 hr 6 hr
Max Min
Apr 21 11:07 E 9 16.09 Mostly Cloudy BKN017 9 5     77% 7   1029.1        
Apr 21 11:00 9 16.09 Partly Cloudy SCT017 9 6     80% 7   1029.1        
Apr 21 10:53 ENE 11 16.09 Mostly Cloudy SCT006 BKN011 BKN020 9 5     74% 8   1029.1 1029.2     0
Apr 21 09:53 8 16.09 Fog/Mist SCT006 BKN011 BKN020 7 6     90% 6   1028.8 1029 0    
Apr 21 09:37 E 15 8.05 Fog/Mist SCT006 BKN011 BKN020 7 6     93% 5   1028.5   0    
Apr 21 08:53 E 9 14.48 Light Rain BKN011 OVC018 7 6     93% 5   1028.1 1028.2 0    
Apr 21 07:53 SE 5 14.48 Light Rain BKN011 OVC018 7 5     89% 6   1026.8 1026.8 0 0  
Apr 21 06:53 SSE 17 14.48 Light Rain BKN021 OVC029 7 5     89% 4   1025.4 1025.5 0    
Apr 21 05:53 SSE 21 16.09 Cloudy BKN017 BKN021 OVC030 7 4     82% 4   1024.1 1024.1      
Apr 21 05:00 S 26 16.09 Mostly Cloudy BKN019 7 4     82% 3   1023        
Apr 21 04:53 SSE 22 16.09 Partly Cloudy SCT017 7 4     82% 4   1023 1023.1     0
Apr 21 04:02   16.09 Mostly Clear FEW018 7 4     82%     1021.7        
Apr 21 03:53   16.09 Mostly Cloudy BKN020 7 4     82%     1021.3 1021.5      
Apr 21 03:09   16.09 Cloudy OVC028 8 3     71%     1021.3        
Apr 21 02:53 SE 22 16.09 Cloudy BKN030 BKN034 OVC048 8 3     71% 5   1021.3 1021.2      
Apr 21 01:53   16.09 Cloudy BKN038 OVC050 9 3     68%     1021.3 1021.4 0 0  
Apr 21 00:53   16.09 Cloudy OVC065 10 1     54%     1021 1020.9      
Apr 20 23:53 SSE 24 16.09 Cloudy OVC060 10 1     54% 7   1020.7 1020.6      
Apr 20 22:53   16.09 Cloudy BKN065 OVC080 11 -1     46%     1021 1021.2      
Apr 20 21:53 S 21 16.09 Cloudy OVC085 12 0     45%     1020.7 1020.9      
Apr 20 20:53 SE 15 16.09 Cloudy OVC095 12 1     47%     1021 1020.9      
Apr 20 19:53 SSE 15 16.09 Cloudy OVC100 12 2     50%     1021 1021      
Apr 20 18:53 S 11 16.09 Cloudy OVC100 12 3     54%     1021.3 1021.5      
Apr 20 17:53 S 13 16.09 Mostly Cloudy BKN110 13 0     40%     1021.7 1021.8      
Apr 20 16:53 SSE 11 16.09 Cloudy OVC090 13 -1     37%     1021.7 1022      
Apr 20 15:53   16.09 Cloudy OVC095 14 0     37%     1022.4 1022.5      
Apr 20 14:53 SSE 22 16.09 Cloudy OVC100 15 -2     32%     1022.4 1022.3      
Apr 20 13:53 SSE 18 16.09 Mostly Clear FEW120 15 -1     34%     1022.4 1022.5      
Apr 20 12:53   16.09 Clear CLR 14 -1     34%     1022.7 1022.7      
Apr 20 11:53 SSW 11 16.09 Partly Cloudy SCT100 13 4     53%     1023.7 1023.7      
Apr 20 10:53 SSE 15 16.09 Clear CLR 12 4     59%     1024.1 1024.1      
Apr 20 09:53 SSE 11 16.09 Clear CLR 10 4     68% 8   1024.4 1024.5      
Apr 20 08:53 SSE 15 16.09 Mostly Cloudy BKN120 9 4     71% 7   1024.7 1024.8      
Apr 20 07:53 ESE 8 16.09 Clear CLR 7 4     80% 6   1024.7 1024.9      
Apr 20 06:53 E 9 16.09 Clear CLR 7 4     80% 5   1024.4 1024.7      
Apr 20 05:53 Calm 16.09 Clear CLR 7 2     73%     1024.4 1024.6      
Apr 20 04:53 Calm 16.09 Clear CLR 6 2     73%     1024.7 1024.8      
Apr 20 03:53 Calm 16.09 Clear CLR 7 2     71%     1024.7 1024.9      
Apr 20 02:53 N 5 16.09 Cloudy OVC110 8 3     68% 8   1025.1 1025.1      
Apr 20 01:53 N 8 16.09 Cloudy SCT050 OVC110 8 2     65% 7   1025.1 1025.2      
Apr 20 00:53 N 9 16.09 Cloudy BKN050 OVC110 9 2     63% 7   1025.1 1025.2      
Apr 19 23:53 N 11 16.09 Mostly Cloudy BKN055 8 3     68% 6   1025.1 1025.3      
Apr 19 22:53 NNW 5 16.09 Cloudy OVC070 9 3     66% 8   1025.1 1025.3      
Apr 19 21:53 NNW 5 16.09 Mostly Cloudy BKN070 9 4     73% 8   1025.1 1025.3      
Apr 19 20:53 NW 9 16.09 Clear CLR 9 3     63% 8   1024.7 1025      
Apr 19 19:53 NW 9 16.09 Clear CLR 11 2     54%     1024.4 1024.6      
Apr 19 18:53 NW 11 16.09 Clear CLR 13 2     48%     1024.4 1024.5      
Apr 19 17:53 NW 11 16.09 Clear CLR 13 2     47%     1024.7 1024.9      
Apr 19 16:53 NNW 8 16.09 Clear CLR 13 2     47%     1024.4 1024.6      
Apr 19 15:53 NW 13 16.09 Clear CLR 13 3     51%     1024.7 1024.9      
Apr 19 14:53 NNW 15 16.09 Clear CLR 14 2     44%     1025.1 1025.1      
Apr 19 13:53 W 9 16.09 Clear CLR 13 7     66%     1025.1 1025.2      
Apr 19 12:53 W 9 16.09 Clear CLR 12 4     59%     1025.1 1025.1      
Apr 19 11:53 N 9 16.09 Clear CLR 12 4     61%     1025.1 1025.2      
Apr 19 10:53 NNW 9 16.09 Clear CLR 10 4     68% 9   1025.4 1025.4      
Apr 19 09:53 WNW 11 16.09 Clear CLR 8 4     76% 6   1025.1 1025.2      
Apr 19 06:53 Calm 16.09 Mostly Clear FEW004 5 4     96%     1023.7 1023.9      
Apr 19 06:36 Calm 16.09 Partly Cloudy SCT004 5 4     93%     1023.4        
Apr 19 05:53 NNW 5 16.09 Clear CLR 4 3     93% 3   1023.4 1023.7      
Apr 19 04:53 WNW 5 16.09 Clear CLR 5 4     96% 4   1023.4 1023.4      
Apr 19 03:53 Calm 16.09 Clear CLR 6 5     96%     1023 1023.1      
Apr 19 02:53 NW 5 16.09 Clear CLR 6 4     92% 5   1023 1023.2      
Apr 19 01:53 Calm 16.09 Clear CLR 6 4     92%     1023 1023.1      
Apr 19 00:53 WNW 8 16.09 Clear CLR 6 4     89% 5   1023 1023.3      
Apr 18 23:53 Calm 16.09 Mostly Cloudy BKN095 7 5     86%     1022.7 1023      
Apr 18 21:53 NNW 13 16.09 Cloudy BKN055 OVC070 9 6     80% 7   1022.4 1022.4 0    
Apr 18 20:53 Calm 16.09 Light Rain OVC055 9 6     77%     1022.4 1022.6 0    
Apr 18 19:53 ENE 11 16.09 Cloudy BKN075 OVC095 11 3     61%     1022.4 1022.7      
Apr 18 18:53 WNW 13 16.09 Mostly Cloudy BKN095 11 4     63%     1021.7 1021.7      
Apr 18 17:53 11 16.09 Clear CLR 12 6     64%     1021.3 1021.5      
Apr 18 16:53 WNW 18 16.09 Clear CLR 12 6     64%     1021.3 1021.6      
Apr 18 15:53 NW 13 16.09 Clear CLR 12 5     61%     1021.7 1022      
Apr 18 14:53 NNW 9 16.09 Clear CLR 12 5     63%     1022.4 1022.4      
Apr 18 13:53 NW 13 16.09 Clear CLR 11 4     65%     1022.7 1022.8      
Apr 18 11:53 NNW 11 16.09 Mostly Clear FEW010 9 4     73% 7   1023.4 1023.7      
Apr 18 10:53 NW 11 16.09 Mostly Clear FEW007 9 4     73% 7   1023.7 1023.9      
Jun 11 21:53 8 16.09 Clear CLR 13 9     77%     1015.9 1015.8      
Jun 11 20:53 NW 8 16.09 Clear   14 9     70%     1015.9 1015.7      
Jun 11 19:53 NW 9 16.09 Clear   17 7     52%     1015.9 1015.6      
Jun 11 11:53 WSW 11 16.09 Clear CLR 15 11     75%     1017.6 1017.5      
Jun 10 23:53 N 9 16.09 Clear   12 9     80%     1014.2 1014.3      
Jun 10 16:53 NW 11 16.09 Clear CLR 16 6     52%     1011.5 1011.6      
Notice The following observation data may not be complete
Jun 10 02:39   16.09 Cloudy BKN015 OVC080          %              
Jun 10 01:48   16.09 Cloudy FEW016 BKN070 OVC085 11 8     82%     1011.5        
Jun 09 11:10 Calm 16.09 Cloudy FEW025 BKN031 OVC080 13 8     72%     1012.2        
Jun 09 06:53 ESE 15 16.09 Cloudy OVC055 10 8     86% 8   1012.9 1012.8      
Jun 09 02:53 SSE 13 16.09 Mostly Cloudy BKN070 11 7     79%     1014.2 1014      
Jun 08 07:29 SSE 13 12.87 Light Rain SCT004 BKN009 BKN045 13 12     93%     1003.7   0    
Jun 06 05:53 WNW 5 16.09 Clear CLR 11 9     86%     1016.9 1016.6      
Jun 05 22:53 8 16.09 Clear CLR 12 8     80%     1018.6 1018.5      
Jun 05 18:53 NW 11 16.09 Clear CLR 18 8     52%     1018.3 1018.4